Starlink 5405

operational
NORAD ID: 54863 Int'l Des: 2022-177 Owner: SPXS Country: US Constellation: starlink
LEOCIRCULAR

Starlink 5405について

説明を読み込み中...

リアルタイム位置

3D地球を読み込み中...

次回通過

高度履歴

Altitude vs Time

uPlot chart will show altitude changes over time

軌道要素

1 54863U 22177AV 25306.10556963 .00000223 00000-0 31551-4 0 9992
2 54863 43.0031 93.5487 0001313 273.3549 86.7143 15.02533645157912
Epoch: Nov 2, 2025 • Age: 27 hours

現在のステータス

高度 558.2 km
速度 7.58 km/s
衛星直下点 6.58°N, 33.77°W
打ち上げ日 Dec 28, 2022
運用期間 2.8 years
タイプ internet

技術仕様

分類 Payload
質量 305.00 kg
乾燥質量 290.00 kg
総質量 305.00 kg
長さ 0.20 m
直径 2.80 m
スパン 9.00 m
形状 Box + pan
製造者 SPXS
バスタイプ Starlink
フェーズステータス In Orbit
所有者/国 SPXS/US

大規模コンステレーション

Loading constellations...